{"data":{"norad_id":67033,"epoch":"2026-05-25T04:41:24.059040Z","epoch_age_seconds":55178,"freshness":"FRESH","line1":"1 67033U 25294D   26145.19541735  .00017474  00000+0  64280-3 0  9999","line2":"2 67033  43.0055 325.6830 0000983 286.1104  73.9639 15.27591066 26509","mean_motion":15.27591066,"eccentricity":9.83e-5,"inclination_deg":43.0055,"raan_deg":325.683,"arg_perigee_deg":286.1104,"mean_anomaly_deg":73.9639,"bstar":0.0006428,"rev_number":2650,"period_min":94.266065837282,"perigee_km":482.34150931868,"apogee_km":483.69041199074,"semimajor_km":6861.1529606547,"source":"CELESTRAK","updated_at":"2026-05-25T13:38:21.436754Z"}}